When you browse on this site, cookies collect data to enhance your experience and personalize the content and advertising you see.
Visit our Privacy Policy to learn more. By continuing to use the site, you agree to this use of cookies and data.
  • In Lithuania
  • List of Countries
  • For 7 days
  • Water Temperature
  • Satellite Maps
  • Weather Map
  • Weather Widgets
  • user-avatar
    Login

    Hourly Weather Ordino

    Today, 19 February, Tuesday

    Time Temperature Precipitation Wind Pressure Humidity
    00:00 +1°C° 0 mm 1 mps 632 mmHg 55%
    01:00 +1°C° 0 mm 1 mps 632 mmHg 53%
    02:00 +1°C° 0 mm 1 mps 632 mmHg 51%
    03:00 +1°C° 0 mm 1 mps 632 mmHg 49%
    04:00 +1°C° 0 mm 1 mps 632 mmHg 49%
    05:00 +1°C° 0 mm 1 mps 632 mmHg 48%
    06:00 0°C° 0 mm 1 mps 632 mmHg 47%
    07:00 +2°C° 0 mm 1 mps 633 mmHg 45%
    08:00 +3°C° 0 mm 0 mps 634 mmHg 44%
    09:00 +5°C° 0 mm 0 mps 635 mmHg 43%
    10:00 +6°C° 0 mm 0 mps 635 mmHg 42%
    11:00 +8°C° 0 mm 1 mps 635 mmHg 41%
    12:00 +9°C° 0 mm 1 mps 636 mmHg 40%
    13:00 +8°C° 0 mm 1 mps 635 mmHg 43%
    14:00 +8°C° 0 mm 1 mps 635 mmHg 45%
    15:00 +8°C° 0 mm 1 mps 634 mmHg 47%
    16:00 +6°C° 0 mm 1 mps 634 mmHg 56%
    17:00 +3°C° 0 mm 0 mps 633 mmHg 66%
    18:00 +1°C° 0 mm 0 mps 632 mmHg 75%
    19:00 0°C° 0 mm 0 mps 633 mmHg 73%
    20:00 0°C° 0 mm 0 mps 633 mmHg 72%
    21:00 0°C° 0 mm 0 mps 633 mmHg 70%
    22:00 0°C° 0 mm 0 mps 633 mmHg 68%
    23:00 0°C° 0 mm 0 mps 633 mmHg 66%

    Tomorrow, 20 February, Wednesday

    Time Temperature Precipitation Wind Pressure Humidity
    00:00 0°C° 0 mm 0 mps 633 mmHg 64%
    01:00 0°C° 0 mm 0 mps 633 mmHg 63%
    02:00 0°C° 0 mm 0 mps 633 mmHg 63%
    03:00 0°C° 0 mm 0 mps 633 mmHg 62%
    04:00 +1°C° 0 mm 1 mps 633 mmHg 61%
    05:00 +1°C° 0 mm 1 mps 633 mmHg 60%
    06:00 +1°C° 0 mm 1 mps 633 mmHg 59%
    07:00 +2°C° 0 mm 0 mps 634 mmHg 55%
    08:00 +4°C° 0 mm 0 mps 635 mmHg 50%
    09:00 +5°C° 0 mm 0 mps 636 mmHg 45%
    10:00 +6°C° 0 mm 0 mps 637 mmHg 43%
    11:00 +9°C° 0 mm 1 mps 637 mmHg 41%
    12:00 +10°C° 0 mm 1 mps 637 mmHg 39%
    13:00 +9°C° 0 mm 1 mps 637 mmHg 42%
    14:00 +9°C° 0 mm 1 mps 637 mmHg 44%
    15:00 +9°C° 0 mm 1 mps 637 mmHg 46%
    16:00 +7°C° 0 mm 1 mps 636 mmHg 56%
    17:00 +5°C° 0 mm 1 mps 635 mmHg 65%
    18:00 +3°C° 0 mm 1 mps 635 mmHg 75%
    19:00 +3°C° 0 mm 1 mps 635 mmHg 74%
    20:00 +2°C° 0 mm 1 mps 636 mmHg 74%
    21:00 +2°C° 0 mm 1 mps 636 mmHg 73%
    22:00 +2°C° 0 mm 1 mps 636 mmHg 71%
    23:00 +2°C° 0 mm 1 mps 636 mmHg 70%

    Day after tomorrow, 21 February, Thursday

    Time Temperature Precipitation Wind Pressure Humidity
    00:00 +2°C° 0 mm 1 mps 636 mmHg 68%
    01:00 +2°C° 0 mm 1 mps 636 mmHg 67%
    02:00 +2°C° 0 mm 1 mps 636 mmHg 66%
    03:00 +2°C° 0 mm 1 mps 636 mmHg 65%
    04:00 +2°C° 0 mm 1 mps 636 mmHg 63%
    05:00 +2°C° 0 mm 1 mps 637 mmHg 61%
    06:00 +2°C° 0 mm 1 mps 637 mmHg 60%
    07:00 +4°C° 0 mm 1 mps 638 mmHg 54%
    08:00 +5°C° 0 mm 0 mps 639 mmHg 49%
    09:00 +7°C° 0 mm 0 mps 640 mmHg 43%
    10:00 +8°C° 0 mm 0 mps 640 mmHg 40%
    11:00 +10°C° 0 mm 1 mps 641 mmHg 37%
    12:00 +11°C° 0 mm 1 mps 641 mmHg 34%
    13:00 +11°C° 0 mm 1 mps 641 mmHg 37%
    14:00 +11°C° 0 mm 1 mps 641 mmHg 40%
    15:00 +11°C° 0 mm 1 mps 641 mmHg 42%
    16:00 +8°C° 0 mm 1 mps 640 mmHg 52%
    17:00 +6°C° 0 mm 1 mps 639 mmHg 62%
    18:00 +3°C° 0 mm 0 mps 639 mmHg 72%
    19:00 +4°C° 0 mm 1 mps 639 mmHg 71%
    20:00 +4°C° 0 mm 1 mps 639 mmHg 70%
    21:00 +4°C° 0 mm 1 mps 640 mmHg 69%
    22:00 +4°C° 0 mm 1 mps 640 mmHg 68%
    23:00 +4°C° 0 mm 1 mps 640 mmHg 66%

    22 February, Friday

    Time Temperature Precipitation Wind Pressure Humidity
    00:00 +4°C° 0 mm 1 mps 640 mmHg 65%
    01:00 +4°C° 0 mm 1 mps 640 mmHg 62%
    02:00 +4°C° 0 mm 1 mps 640 mmHg 58%
    03:00 +4°C° 0 mm 1 mps 640 mmHg 54%
    04:00 +3°C° 0 mm 1 mps 640 mmHg 48%
    05:00 +3°C° 0 mm 1 mps 640 mmHg 42%
    06:00 +3°C° 0 mm 1 mps 640 mmHg 36%
    07:00 +5°C° 0 mm 1 mps 641 mmHg 33%
    08:00 +7°C° 0 mm 1 mps 641 mmHg 30%
    09:00 +9°C° 0 mm 1 mps 642 mmHg 27%
    10:00 +10°C° 0 mm 0 mps 643 mmHg 26%
    11:00 +12°C° 0 mm 0 mps 643 mmHg 25%
    12:00 +14°C° 0 mm 0 mps 644 mmHg 23%
    13:00 +14°C° 0 mm 1 mps 643 mmHg 27%
    14:00 +14°C° 0 mm 1 mps 643 mmHg 30%
    15:00 +14°C° 0 mm 1 mps 643 mmHg 34%
    16:00 +11°C° 0 mm 1 mps 642 mmHg 42%
    17:00 +9°C° 0 mm 1 mps 641 mmHg 50%
    18:00 +6°C° 0 mm 1 mps 640 mmHg 58%
    19:00 +6°C° 0 mm 1 mps 640 mmHg 55%
    20:00 +6°C° 0 mm 1 mps 640 mmHg 52%
    21:00 +6°C° 0 mm 1 mps 640 mmHg 49%
    22:00 +6°C° 0 mm 1 mps 640 mmHg 45%
    23:00 +6°C° 0 mm 1 mps 640 mmHg 41%

    23 February, Saturday

    Time Temperature Precipitation Wind Pressure Humidity
    00:00 +6°C° 0 mm 1 mps 640 mmHg 37%
    01:00 +5°C° 0 mm 1 mps 640 mmHg 38%
    02:00 +5°C° 0 mm 1 mps 640 mmHg 39%
    03:00 +5°C° 0 mm 1 mps 640 mmHg 41%
    04:00 +5°C° 0 mm 1 mps 640 mmHg 43%
    05:00 +5°C° 0 mm 1 mps 640 mmHg 46%
    06:00 +5°C° 0 mm 1 mps 640 mmHg 49%
    07:00 +7°C° 0 mm 1 mps 641 mmHg 47%
    08:00 +9°C° 0 mm 1 mps 642 mmHg 45%
    09:00 +11°C° 0 mm 1 mps 643 mmHg 43%
    10:00 +13°C° 0 mm 1 mps 644 mmHg 39%
    11:00 +14°C° 0 mm 1 mps 644 mmHg 35%
    12:00 +16°C° 0 mm 1 mps 645 mmHg 32%
    13:00 +16°C° 0 mm 1 mps 645 mmHg 34%
    14:00 +16°C° 0 mm 1 mps 645 mmHg 36%
    15:00 +16°C° 0 mm 1 mps 644 mmHg 38%
    16:00 +13°C° 0 mm 1 mps 644 mmHg 47%
    17:00 +11°C° 0 mm 1 mps 643 mmHg 55%
    18:00 +8°C° 0 mm 1 mps 642 mmHg 64%
    19:00 +8°C° 0 mm 1 mps 642 mmHg 64%
    20:00 +7°C° 0 mm 1 mps 642 mmHg 64%
    21:00 +7°C° 0 mm 1 mps 642 mmHg 64%
    22:00 +7°C° 0 mm 1 mps 642 mmHg 62%
    23:00 +7°C° 0 mm 1 mps 642 mmHg 59%

    24 February, Sunday

    Time Temperature Precipitation Wind Pressure Humidity
    00:00 +7°C° 0 mm 1 mps 642 mmHg 56%
    01:00 +7°C° 0 mm 1 mps 642 mmHg 50%
    02:00 +7°C° 0 mm 1 mps 642 mmHg 44%
    03:00 +6°C° 0 mm 2 mps 642 mmHg 38%
    04:00 +5°C° 0 mm 2 mps 642 mmHg 35%
    05:00 +5°C° 0 mm 2 mps 642 mmHg 31%
    06:00 +5°C° 0 mm 2 mps 642 mmHg 27%
    07:00 +7°C° 0 mm 2 mps 643 mmHg 29%
    08:00 +9°C° 0 mm 2 mps 644 mmHg 31%
    09:00 +12°C° 0 mm 2 mps 645 mmHg 34%
    10:00 +13°C° 0 mm 2 mps 646 mmHg 32%
    11:00 +14°C° 0 mm 2 mps 646 mmHg 31%
    12:00 +16°C° 0 mm 2 mps 646 mmHg 30%
    13:00 +16°C° 0 mm 2 mps 646 mmHg 32%
    14:00 +15°C° 0 mm 2 mps 646 mmHg 33%
    15:00 +15°C° 0 mm 2 mps 645 mmHg 34%
    16:00 +13°C° 0 mm 2 mps 645 mmHg 44%
    17:00 +10°C° 0 mm 1 mps 644 mmHg 54%
    18:00 +8°C° 0 mm 1 mps 643 mmHg 65%
    19:00 +7°C° 0 mm 1 mps 643 mmHg 62%
    20:00 +7°C° 0 mm 1 mps 643 mmHg 59%
    21:00 +5°C° 0 mm 2 mps 643 mmHg 56%
    22:00 +5°C° 0 mm 2 mps 643 mmHg 53%
    23:00 +5°C° 0 mm 2 mps 643 mmHg 49%
    Show more